EW0345 Weather Reports


time (UTC)temp
F
wind
direction
speed
knots
gust
knots
rain 1hr
in
rain 24hr
in
rain mn
in
humidity
%
barometer
mb
20260504211538 70 0.0 0.0 0.00 0.02 0.01 32 1006.5
20260504210035 70 0.0 0.0 0.00 0.02 0.01 33 1006.4
20260504204542 70 0.0 0.0 0.00 0.02 0.01 33 1006.4
20260504203041 70 0.0 0.0 0.00 0.02 0.01 34 1006.5
20260504201543 70 0.0 0.0 0.00 0.02 0.01 31 1006.4
20260504200036 70 0.0 0.0 0.00 0.02 0.01 32 1006.6
20260504194535 71 0.0 0.0 0.00 0.02 0.01 33 1006.6
20260504193048 72 0.0 0.0 0.00 0.02 0.01 31 1006.7
20260504191607 71 0.0 0.0 0.00 0.02 0.01 33 1006.7
20260504190041 70 0.0 0.0 0.00 0.02 0.01 33 1006.8
20260504184549 69 0.0 0.0 0.00 0.02 0.01 33 1006.9
20260504183035 69 0.0 0.0 0.00 0.02 0.01 33 1007.0
20260504181541 70 0.0 0.0 0.00 0.02 0.01 31 1007.1
20260504180041 70 0.0 0.0 0.00 0.02 0.01 31 1007.2
20260504174541 71 0.0 0.0 0.00 0.02 0.01 32 1007.2
20260504173039 71 0.0 0.0 0.00 0.02 0.01 32 1007.1
20260504171540 70 0.0 0.0 0.00 0.02 0.01 30 1007.2
20260504081545 40 0.0 0.0 0.00 0.02 0.00 77 1010.4
20260504044538 38 0.0 0.0 0.00 0.02 0.00 74 1010.7
20260504043045 38 0.0 0.0 0.00 0.02 0.00 75 1010.6
20260504041543 37 0.0 0.0 0.00 0.02 0.00 78 1010.4
20260504040043 36 0.0 0.0 0.00 0.02 0.00 80 1010.4
20260504034552 36 0.0 0.0 0.00 0.02 0.02 82 1010.4
20260504033049 37 0.0 0.0 0.00 0.02 0.02 82 1010.3
20260504031540 37 0.0 0.0 0.00 0.02 0.02 81 1010.4
20260504030038 38 0.0 0.0 0.00 0.02 0.02 79 1010.4
20260504024541 38 0.0 0.0 0.00 0.02 0.02 78 1010.3
20260504023043 39 0.0 0.0 0.00 0.02 0.02 76 1010.3
20260504021543 39 0.0 0.0 0.00 0.02 0.02 77 1010.4
20260504020039 40 0.0 0.0 0.00 0.02 0.02 75 1010.3
20260504014540 40 0.0 0.0 0.00 0.02 0.02 73 1010.2
20260504013038 41 0.0 0.0 0.00 0.02 0.02 73 1010.0
20260504011541 42 0.0 0.0 0.00 0.02 0.02 71 1009.9
20260504010044 42 0.0 0.0 0.00 0.02 0.02 68 1009.8
20260504004542 43 0.0 0.0 0.00 0.03 0.02 65 1009.6
20260504003043 44 0.0 0.0 0.00 0.03 0.02 64 1009.4
20260504001539 45 0.0 0.0 0.00 0.03 0.02 58 1009.2
20260504000051 46 0.0 0.0 0.00 0.03 0.02 57 1009.2
20260503234535 47 0.0 0.0 0.00 0.03 0.02 54 1009.0
20260503233043 48 0.0 0.0 0.01 0.03 0.02 50 1008.9
20260503231539 48 0.0 0.0 0.01 0.03 0.02 49 1008.9
20260503230040 49 0.0 0.0 0.01 0.03 0.02 48 1008.6
20260503224538 49 0.0 0.0 0.01 0.03 0.02 47 1008.6
20260503223045 50 0.0 0.0 0.00 0.02 0.01 47 1008.2
20260503221541 50 0.0 0.0 0.00 0.02 0.01 44 1008.1
20260503220042 50 0.0 0.0 0.00 0.02 0.01 43 1008.0
20260503214540 51 0.0 0.0 0.00 0.02 0.01 43 1008.0
20260503213036 51 0.0 0.0 0.00 0.02 0.01 42 1007.6